Погода в Астафьевском

Россия / Челябинская область     53°28′30″N   60°04′16″E
темп.,
°C
ветер,
м/с
пор.,
м/с
влажн.,
%
обл.,
%
осадки,
мм/ч
давл.,
гПа
погр.,
м
19 мая, ср
ср1923:00+16ссз49785 2.9 1015174
02:00+13св714873 0.0 1017435
05:00+12св6129131 0.0 1019462
08:00+13св8107849 0.0 1020689
11:00+17св785937 0.0 10211259
14:00+20всв78443 0.0 10211606
17:00+21всв67405 0.0 10201766
20:00+18всв48530 0.0 1021236
20 мая, чт
чт2023:00+13всв48620 0.0 1022146
02:00+12в366527 0.0 102394
05:00+10в34665 0.0 102461
08:00+15вюв345344 0.0 1024315
11:00+19вюв44385 0.0 10231366
14:00+22юв34310 0.0 10221817
17:00+23ююв34270 0.0 10211932
20:00+20юв22400 0.0 102117
21 мая, пт
пт2123:00+15ююв33440 0.0 102132
02:00+14ю47500 0.0 1022106
05:00+12ююз33560 0.0 102232
08:00+17ююз35470 0.0 1022291
11:00+22ююз45330 0.0 10211435
14:00+24ююз45280 0.0 10201961
17:00+25ю452945 0.0 10192403
20:00+21юз4648100 0.0 1019113
22 мая, сб
сб2223:00+18з225925 0.0 102034
02:00+15зюз3469100 0.0 102063
05:00+14зюз33850 1.3 102148
08:00+18з346439 0.1 1021302
11:00+23з453914 0.1 10201711
14:00+25з673495 0.0 10202541
17:00+25зсз463353 0.0 10192354
20:00+22сз594799 0.0 1020241
23 мая, вс
вс2323:00+17сз345990 0.0 102168
02:00+16сз33665 0.0 102235
05:00+14сз117080 0.0 102211
08:00+19ююв22569 0.0 1022263
11:00+24юз5742100 0.0 10221113
14:00+28з583361 0.0 10202365
17:00+22св675499 0.0 1022394
20:00+20всв466489 0.0 1022203